Location: R�jaumont
(43.8135°N, 0.5506°E)
Time: 18:29:20
(UTC+00:00)

Daily predictions for brighter satellites

Satellite Brightness Start Highest point End
(mag) Time Altitude Azimuth Time Altitude Azimuth Time Altitude Azimuth
NOSS 3-4 (A) 4.1 19:40:52 10° NNW 19:47:48 63° NE 19:55:32 10° SE
NOSS 3-4 (C) 4.1 19:40:59 10° NNW 19:47:55 63° NE 19:55:38 10° SE
Cosmos 1933 Rocket 4.5 19:47:06 10° NNE 19:51:00 31° ENE 19:54:53 10° SE
IRS-1A Rocket 4.5 19:45:18 10° SSE 19:51:04 66° ENE 19:56:56 10° N
Cosmos 1151 Rocket 3.1 19:47:24 10° S 19:51:46 89° W 19:56:11 10° N
Tianhe-1 1.5 19:49:09 10° WSW 19:52:08 42° SSE 19:55:08 10° E
Cosmos 1777 Rocket 4.2 19:47:31 10° SSW 19:52:43 82° WNW 19:57:58 10° NNE
Cosmos 1666 Rocket 3.8 19:48:37 10° NNW 19:52:59 75° W 19:57:17 10° S
deb Kosmos-1763 4.0 19:52:06 10° NNW 19:55:39 72° ENE 19:59:10 10° SSE
SJ-6B 3.1 19:51:46 10° S 19:55:42 76° WSW 19:59:47 10° NNW
CZ-4 R/B 4.4 19:54:08 10° WSW 19:55:57 13° W 19:57:45 10° WNW
Ariane Rocket 3.1 19:51:49 10° SSE 19:56:49 68° ENE 20:01:53 10° N
Cosmos 1943 Rocket 3.6 19:55:54 10° SE 19:59:33 18° E 20:03:11 10° ENE
USA 308 3.3 19:55:20 10° WNW 19:59:33 57° SW 20:03:44 10° SE
ATLAS 2AS CENTAUR R/B 3.4 19:53:50 10° NNW 20:00:58 47° NE 20:07:32 10° ESE
Cosmos 2082 Rocket 2.5 19:56:38 10° NNW 20:02:10 55° ENE 20:07:41 10° SE
Cosmos 158 Rocket 4.2 19:58:08 10° N 20:02:55 49° ENE 20:07:44 10° SE
Resurs 1-3 3.6 20:05:59 10° SSE 20:10:22 84° ENE 20:14:47 10° NNW
Cosmos 1898 Rocket 4.4 20:07:59 10° SSE 20:12:30 29° E 20:17:03 10° NE
CZ-2C R/B 4.4 20:13:52 10° NNE 20:18:01 34° E 20:22:12 10° SSE
USA 245 4.4 20:18:58 11° E 20:19:52 13° ENE 20:21:04 10° NE
Cosmos 923 Rocket 4.4 20:15:35 10° NNW 20:20:44 52° ENE 20:25:16 13° SE
Cosmos 1271 Rocket 2.9 20:17:52 10° S 20:21:47 56° E 20:25:43 10° NNE
ARIANE 5 R/B 4.1 20:18:52 12° ESE 20:21:51 22° ENE 20:25:12 10° NNE
Cosmos 2278 Rocket 3.1 20:19:46 10° SW 20:25:18 55° WNW 20:30:52 10° NNE
Cosmos 1461 3.8 20:21:32 10° S 20:25:42 32° ESE 20:29:51 10° NE
Cosmos 2369 Rocket 3.7 20:26:36 14° ESE 20:28:36 16° E 20:31:56 10° ENE
COSMOS 2406 4.0 20:24:45 10° NW 20:30:11 48° WSW 20:35:36 10° S
Meteor 1-10 Rocket 4.2 20:25:18 10° S 20:30:51 69° E 20:36:33 10° NNE
Cosmos 1666 2.5 20:28:15 10° N 20:31:59 82° E 20:35:18 13° S
Cosmos 1818 4.4 20:27:09 10° NNW 20:32:21 41° NE 20:36:36 15° ESE
Landsat 7 3.9 20:28:10 12° SSE 20:32:28 66° ENE 20:37:12 10° N
SL-24 R/B - RUBIN 2 4.2 20:29:21 10° NNW 20:34:43 59° NE 20:38:18 17° SE
USA 305 4.4 20:32:13 10° WNW 20:35:49 27° SW 20:39:07 11° S
Cosmos 1536 3.6 20:34:10 10° N 20:37:53 35° ENE 20:40:06 20° SE
ERBS 3.4 20:35:05 10° NNW 20:38:10 35° NE 20:40:21 16° E
OAO 3 Rocket 4.2 20:34:42 10° WSW 20:38:39 28° S 20:40:54 19° SE
USA 267 4.1 20:33:25 10° SSE 20:39:30 41° SW 20:45:37 10° WNW
SWARM A 4.4 20:38:04 10° N 20:41:24 72° W 20:44:29 11° S
CZ-2C R/B 2.6 20:39:56 10° SW 20:42:43 18° S 20:43:05 18° SSE
SPOT 5 4.2 20:39:51 16° ESE 20:43:10 30° ENE 20:47:47 10° N
Cosmos 1812 3.9 20:40:41 10° SSW 20:44:22 44° WNW 20:48:05 10° N
OBJECT-B 3.7 20:42:33 10° SW 20:44:29 15° W 20:46:26 10° NW
Nadezhda 1 Rocket 4.2 20:38:48 10° SSE 20:44:52 54° E 20:50:53 10° NNE
Cosmos 2154 Rocket 4.2 20:39:55 10° N 20:46:07 55° ENE 20:50:44 18° SSE
Cosmos 2074 Rocket 4.0 20:42:19 10° N 20:48:41 86° E 20:54:25 13° S
Cosmos 1833 Rocket 4.2 20:45:37 10° NW 20:50:35 32° WSW 20:55:31 10° SSW
ERS-1 Rocket 3.9 20:49:06 19° ESE 20:52:00 35° ENE 20:56:31 10° N
Cosmos 2184 Rocket 4.0 20:46:00 10° N 20:52:13 88° ENE 20:57:40 14° S
CZ-4C R/B 4.3 20:48:00 10° NW 20:54:39 33° WSW 21:01:58 10° S
ISS -2.1 20:52:31 10° W 20:55:41 37° NNW 20:58:51 10° NE
Cosmos 2112 Rocket 4.1 20:53:45 10° NNW 20:59:08 72° ENE 21:02:28 23° SSE
Cosmos 967 Rocket 4.4 20:53:36 10° SSW 20:59:51 83° ESE 21:06:10 10° NE
Cosmos 1869 Rocket 3.5 20:57:10 10° N 21:01:31 76° E 21:04:04 24° SSE
Cosmos 1937 Rocket 3.5 20:58:57 11° S 21:03:42 59° ESE 21:08:48 10° NNE
Spot 2 Rocket 3.5 21:00:39 23° SSE 21:03:46 66° ENE 21:08:46 10° N
JB-3 4.4 21:02:41 10° NNE 21:06:27 52° E 21:08:00 30° SSE
Cosmos 2228 Rocket 3.2 21:02:03 10° SSW 21:06:28 77° W 21:10:59 10° N
Cosmos 44 3.5 21:01:41 10° NW 21:07:06 76° WSW 21:10:08 26° SSE
SPOT 1/Viking Rocket 3.6 21:05:53 20° S 21:09:31 83° WSW 21:14:44 10° NNW
Cosmos 1743 3.3 21:06:10 10° N 21:09:52 42° ENE 21:11:02 33° ESE
RESURS DK-1 4.3 21:09:05 10° N 21:12:06 19° NE 21:13:58 15° E
Resurs 01 Rocket 2.9 21:08:17 11° SSW 21:12:17 37° W 21:16:25 10° NNW
Cosmos 1610 Rocket 4.4 21:07:14 10° N 21:13:24 85° E 21:17:36 22° S
Cosmos 2084 Rocket 3.5 21:10:09 10° NW 21:14:28 79° SW 21:16:25 33° SSE
Meteor 2-12 Rocket 4.5 21:08:57 10° N 21:15:01 80° W 21:19:29 19° S
Cosmos 1707 Rocket 3.6 21:14:44 30° SSE 21:16:41 57° E 21:21:02 10° NNE
Meteor 1-27 Rocket 3.9 21:11:09 10° SSW 21:17:01 80° W 21:23:00 10° N
CARTOSAT-1 3.5 21:15:34 31° SSE 21:17:33 77° ENE 21:21:52 10° N
Cosmos 858 Rocket 4.4 21:17:46 12° SSW 21:22:40 83° ESE 21:27:56 10° NNE
Cosmos 1295 Rocket 4.5 21:16:27 10° N 21:22:50 88° E 21:26:52 24° S
Cosmos 1680 Rocket 3.9 21:18:38 10° NNW 21:23:54 61° WSW 21:26:59 24° S
Cosmos 1867 3.8 21:23:55 25° S 21:26:46 47° ESE 21:31:59 10° NE
SJ 16-02 4.3 21:24:04 10° W 21:27:07 18° WNW 21:30:10 10° NNW
DNEPR-1 R/B 4.5 21:21:55 10° SW 21:27:57 67° NW 21:32:56 10° NNE
Cosmos 2181 Rocket 4.4 21:25:49 29° SE 21:28:20 43° E 21:34:03 10° NNE
Tianhe-1 1.4 21:25:26 10° W 21:28:08 49° SW 21:28:08 49° SW
Cosmos 2297 4.2 21:26:49 10° SW 21:32:27 63° WNW 21:38:06 10° NNE
BREEZE-M R/B 3.5 21:33:28 10° NW 21:35:41 29° NNE 21:36:27 25° NE
BREEZE M DEB (TANK) 2.0 21:34:49 10° WNW 21:37:16 49° W 21:37:16 49° W
Cosmos 372 Rocket 3.8 21:36:41 31° S 21:39:05 68° ESE 21:44:09 10° NNE
Terra 1.9 21:38:38 40° SE 21:40:13 66° ENE 21:44:57 10° N
Cosmos 1515 3.5 21:39:37 56° S 21:40:19 79° E 21:44:07 10° N
Cosmos 1544 3.7 21:39:06 10° NNW 21:42:37 49° W 21:43:38 37° SW
Cosmos 1943 Rocket 2.5 21:37:05 10° SSW 21:42:41 68° WNW 21:48:16 10° NNE
Cosmos 1733 Rocket 3.0 21:39:54 10° N 21:44:13 71° E 21:45:11 51° SE
Gbstr 26 Del rocket 4.2 21:37:59 10° WNW 21:45:34 72° SW 21:48:28 36° SE
Cosmos 2082 Rocket 4.0 21:41:33 10° NW 21:45:49 23° W 21:49:44 11° SSW
Cosmos 1340 Rocket 3.5 21:42:55 10° NNW 21:46:51 49° W 21:48:11 34° SSW
Cosmos 1656 Rocket 3.9 21:46:52 40° SE 21:48:00 45° ESE 21:53:15 10° NE
Okean 1 3.2 21:49:15 59° S 21:49:58 85° E 21:53:58 10° N
ATLAS 2AS CENTAUR R/B 3.4 21:45:08 10° NW 21:51:52 43° WSW 21:55:13 26° SSW
Cosmos 2341 Rocket 4.0 21:45:47 10° N 21:52:13 89° ENE 21:55:10 35° S
Cosmos 2218 Rocket 4.1 21:49:18 10° N 21:55:37 64° E 21:58:01 38° SE
Gblst 52 Del rocket 4.5 21:49:42 10° WNW 21:56:57 86° SSW 21:59:42 37° SE
ARIANE 5 R/B 3.7 21:56:25 26° SW 21:58:05 36° W 22:02:07 10° NNW
Cosmos 2298 Rocket 4.2 22:02:56 47° SE 22:03:40 51° ESE 22:08:48 10° NNE
SL-8 Rocket 3.9 21:57:56 10° N 22:04:18 87° E 22:06:45 40° S
H-2A R/B 3.4 22:00:59 10° N 22:05:10 79° WNW 22:06:00 56° SSW
Cosmos 1908 Rocket 4.1 22:01:54 10° N 22:06:13 45° ENE 22:06:34 44° E
Cosmos 2369 Rocket 2.3 22:08:17 23° SSW 22:11:55 75° WNW 22:17:36 10° NNE
ATLAS CENTAUR R/B 1.1 22:12:29 76° N 22:12:29 76° N 22:16:04 10° NNE
ERBS 4.3 22:11:26 10° WNW 22:13:07 20° W 22:13:07 20° W
Okean 1-7 3.5 22:21:21 47° ENE 22:21:21 47° ENE 22:25:08 10° NNE
SPOT 5 4.1 22:19:04 28° SW 22:21:03 39° W 22:26:02 10° NNW
Cosmos 1238 Rocket 3.8 22:16:37 10° NNW 22:21:59 55° W 22:23:11 43° SW
Cosmos 2242 Rocket 3.6 22:27:54 65° E 22:27:54 65° E 22:32:18 10° NNE
Cosmos 864 Rocket 4.4 22:22:17 10° N 22:28:25 79° W 22:30:19 47° S
Cosmos 2150 Rocket 3.9 22:28:56 59° S 22:29:55 81° ESE 22:35:13 10° NNE
ERS-1 Rocket 4.3 22:29:05 24° SW 22:30:47 30° W 22:35:12 10° NW
Cosmos 1125 Rocket 3.4 22:31:07 63° SE 22:31:34 66° ESE 22:36:44 10° NNE
Cosmos 468 4.4 22:27:15 10° NNW 22:32:32 86° ENE 22:33:19 65° SSE
ISS -1.1 22:30:30 10° NW 22:33:09 21° N 22:35:48 10° NE
Cosmos 1975 3.1 22:29:41 10° NNW 22:33:30 58° W 22:33:30 58° W
Cosmos 1703 Rocket 3.5 22:34:26 71° ENE 22:34:26 71° ENE 22:38:43 10° NNE
Cosmos 1782 Rocket 3.9 22:34:42 10° N 22:38:55 54° ENE 22:38:55 54° ENE
SL-08 R/B 4.4 22:36:35 10° N 22:42:54 83° E 22:44:29 54° SSE
Cosmos 724 4.3 22:46:12 52° SSW 22:47:48 79° ESE 22:54:04 10° NE
Lacrosse 5 1.7 22:48:54 77° SE 22:48:54 77° SE 22:53:58 10° NE
RESURS DK-1 3.1 22:46:22 10° NW 22:49:50 44° W 22:49:50 44° W
Cosmos 1066 Rocket 4.4 22:55:52 54° ESE 22:56:18 55° E 23:01:45 10° NNE
Cosmos 1356 Rocket 3.7 22:57:59 10° N 23:01:50 67° NNE 23:01:50 67° NNE
Cosmos 2227 Rocket 4.4 22:59:45 10° N 23:03:27 17° NE 23:07:09 10° E
Cosmos 2297 Rocket 4.1 23:01:08 10° N 23:05:31 22° NE 23:08:40 15° E
Okean 3 3.8 23:06:38 62° NNE 23:06:38 62° NNE 23:10:12 10° N
Cosmos 1821 Rocket 3.9 23:00:08 10° N 23:06:34 86° W 23:07:52 60° S
Meteor 1-12 Rocket 4.1 23:05:41 10° N 23:11:30 86° W 23:12:13 70° S
SL-27 R/B 4.5 23:09:54 10° NW 23:11:32 23° NW 23:11:32 23° NW
NOSS 2-1 (E) 4.3 23:10:53 10° NW 23:16:03 81° NE 23:17:30 56° SE
Cosmos 44 Rocket 3.5 23:11:59 10° NW 23:16:57 64° WSW 23:16:57 64° WSW
Terra 4.0 23:17:31 14° WSW 23:18:24 14° W 23:20:55 10° WNW
Meteor 1-15 Rocket 4.3 23:13:17 10° N 23:19:03 69° ENE 23:19:48 61° ESE
Cosmos 2221 Rocket 4.1 23:23:40 52° ENE 23:23:40 52° ENE 23:27:32 10° NNE
COSMOS 2455 3.5 23:20:46 10° NNW 23:26:35 48° NE 23:28:40 34° E
ALOS 2 2.8 23:29:20 69° NNW 23:29:20 69° NNW 23:33:13 10° NNW
COBE Rocket 3.9 23:31:00 82° ESE 23:31:10 84° ENE 23:36:22 10° N
Nimbus 7 Rocket 4.3 23:26:04 10° NNE 23:31:58 68° ESE 23:32:34 63° SE
Cosmos 1535 Rocket 4.4 23:28:36 10° N 23:34:56 80° E 23:36:02 63° SSE
Cosmos 1300 Rocket 3.8 23:30:33 10° N 23:34:19 64° NNW 23:34:19 64° NNW
Cosmos 1269 Rocket 3.9 23:29:41 10° NNW 23:35:00 90° NNW 23:35:07 86° SSE
USA 81 4.5 23:31:01 10° N 23:36:10 49° E 23:36:30 49° E
Meteor 1-23 Rocket 4.2 23:46:20 68° SW 23:47:02 78° W 23:52:53 10° N
Cosmos 1733 4.4 23:44:21 10° NNW 23:46:57 41° NNW 23:46:57 41° NNW
ATLAS CENTAUR R/B 4.2 23:50:23 10° WNW 23:51:49 12° NW 23:53:16 10° NNW
Thor Agena Rocket 3.5 23:47:21 10° NNE 23:52:40 77° ESE 23:52:46 76° ESE
